Location: Mentone
(34.5413°N, 85.5351°W)
Time: 17:18:58
(UTC-05:00)

Cosmos 2026 Rocket - Visible Passes

Search period start: 01 October 2016 00:00
Search period end: 11 October 2016 00:00
Orbit: 939 x 1002 km, 82.9° (Epoch: 01 October)

Date Brightness Start Highest point End Pass type
(mag) Time Alt. Az. Time Alt. Az. Time Alt. Az.
01 Oct 3.8 20:28:47 10° N 20:34:56 82° E 20:35:54 65° SSE visible
01 Oct 6.6 22:17:47 10° WNW 22:19:20 11° W 22:20:31 10° W visible
02 Oct 5.2 19:09:05 10° NNE 19:13:14 19° ENE 19:16:01 14° ESE visible
02 Oct 4.5 20:52:51 10° NNW 20:58:48 54° W 21:00:38 40° SW visible
03 Oct 4.5 19:31:56 10° NNE 19:37:27 34° ENE 19:41:00 20° SE visible
03 Oct 5.6 21:17:22 10° NNW 21:22:31 29° W 21:25:40 19° SW visible
04 Oct 3.9 19:55:25 10° N 20:01:31 64° E 20:06:30 16° SSE visible
04 Oct 6.5 21:42:46 10° NW 21:46:07 15° W 21:49:28 10° WSW visible
05 Oct 4.2 20:19:18 10° N 20:25:26 71° W 20:31:38 10° S visible
06 Oct 4.8 18:58:49 10° NNE 19:03:57 27° ENE 19:09:06 10° SE visible
06 Oct 5.3 20:43:37 10° NNW 20:49:13 38° W 20:54:53 10° SSW visible
07 Oct 4.1 19:22:06 10° N 19:28:04 49° E 19:34:06 10° SSE visible
07 Oct 6.2 21:08:33 10° NW 21:12:52 20° W 21:17:13 10° SW visible
08 Oct 3.9 19:45:51 10° N 19:52:03 90° W 19:58:19 10° S visible
09 Oct 4.9 20:09:58 10° NNW 20:15:53 49° W 20:21:52 10° SSW visible
10 Oct 4.4 18:48:52 10° N 18:54:36 38° ENE 19:00:23 10° SE visible
10 Oct 6.0 20:34:35 10° NNW 20:39:36 26° W 20:44:39 10° SW visible
